Volver al catálogo

FENGYUN 1C DEB

ActivoSSO
NORAD 38138·DEBRIS·🇨🇳 China

Lanzado May 10, 1999 desde Taiyuan Satellite Launch Center

Loading…

Próximos Pases (próximas 24 horas)

TLE

EnvejeciendoSource: Space-Track

Época: Sep 6, 2026, 12:36 UTC

1 38138U 99025EQK 26249.52509070  .00002500  00000-0  82193-3 0  9992
2 38138  98.8033 356.3333 0035342 257.4625 102.2607 14.38822166676514

Sigue FENGYUN 1C DEB en tiempo real con AllMySat

Download on the App Store